Sand Point, AK

7:26 AM AKDT on June 22, 2017 (GMT -0800)
Sand Point

Weather History for PASD - December, 2012

Change the Weather History Date:

Saturday, December 15, 2012

  Actual Average Record
Temperature  
Mean Temperature 22 °F -  
Max Temperature 26 °F 33 °F 43 °F (1984)
Min Temperature 19 °F 26 °F 10 °F (1999)
Degree Days  
Heating Degree Days 42    
Moisture  
Dew Point 16 °F    
Average Humidity 77    
Maximum Humidity 86    
Minimum Humidity 69    
Precipitation  
Precipitation 0.00 in - - ()
Sea Level Pressure  
Sea Level Pressure 29.72 in    
Wind  
Wind Speed 18 mph (NNW)    
Max Wind Speed 25 mph    
Max Gust Speed 32 mph    
Visibility 10 miles    
Events      
Averages and records for this station are not official NWS values.
T = Trace of Precipitation, MM = Missing Value Source: NWS Daily Summary

Daily Weather History Graph

Daily Weather History Graph

Search for Another Location

Airport or City:

Trip Planner

Search our weather history database for the weather conditions in past years. The results will help you decide how hot, cold, wet, or windy it might be!

Date:

Astronomy

Dec. 15, 2012 Rise Set
Actual Time 10:03 AM AKST 5:11 PM AKST
Civil Twilight 9:17 AM AKST 5:57 PM AKST
Nautical Twilight 8:29 AM AKST 6:45 PM AKST
Astronomical Twilight 7:44 AM AKST 7:30 PM AKST
Moon 11:42 AM AKST (12/15) 8:56 PM AKST (12/15)
Length of Visible Light 8h 40m
Length of Day
7h 08m
Waxing Crescent, 9% of the Moon is Illuminated
Dec 15
Waxing Crescent
Dec 19
First Quarter
Dec 28
Full
Jan 4
Last Quarter
Jan 11
New

Hourly Weather History & Observations

Time (AKST) Temp. Windchill Dew Point Humidity Pressure Visibility Wind Dir Wind Speed Gust Speed Precip Events Conditions
12:16 AM 26.6 °F 13.8 °F 21.2 °F 80% 29.65 in 10.0 mi WNW 17.3 mph 20.7 mph N/A   Mostly Cloudy
12:36 AM 26.6 °F 12.7 °F 21.2 °F 80% 29.64 in 10.0 mi NW 20.7 mph 25.3 mph N/A   Mostly Cloudy
12:56 AM 26.6 °F 13.4 °F 19.4 °F 74% 29.66 in 10.0 mi WNW 18.4 mph - N/A   Mostly Cloudy
1:16 AM 26.6 °F 12.0 °F 19.4 °F 74% 29.67 in 10.0 mi NW 23.0 mph 26.5 mph N/A   Partly Cloudy
1:36 AM 26.6 °F 12.0 °F 19.4 °F 74% 29.67 in 10.0 mi WNW 23.0 mph 28.8 mph N/A   Partly Cloudy
1:56 AM 26.6 °F 13.1 °F 21.2 °F 80% 29.66 in 10.0 mi NW 19.6 mph 27.6 mph N/A   Scattered Clouds
2:16 AM 26.6 °F 14.3 °F 19.4 °F 74% 29.67 in 10.0 mi NW 16.1 mph 25.3 mph N/A   Mostly Cloudy
2:36 AM 24.8 °F 10.3 °F 19.4 °F 80% 29.67 in 10.0 mi NW 20.7 mph 27.6 mph N/A   Scattered Clouds
2:56 AM 24.8 °F 10.3 °F 19.4 °F 80% 29.67 in 10.0 mi NW 20.7 mph 25.3 mph N/A   Partly Cloudy
3:16 AM 24.8 °F 10.0 °F 17.6 °F 74% 29.67 in 10.0 mi NW 21.9 mph 27.6 mph N/A   Clear
3:36 AM 24.8 °F 9.6 °F 17.6 °F 74% 29.68 in 10.0 mi NW 23.0 mph - N/A   Partly Cloudy
3:56 AM 24.8 °F 9.6 °F 17.6 °F 74% 29.68 in 10.0 mi NW 23.0 mph 26.5 mph N/A   Clear
4:16 AM 24.8 °F 10.0 °F 17.6 °F 74% 29.68 in 10.0 mi NW 21.9 mph 27.6 mph N/A   Clear
4:36 AM 24.8 °F 9.0 °F 15.8 °F 69% 29.67 in 10.0 mi NW 25.3 mph 31.1 mph N/A   Clear
4:56 AM 24.8 °F 9.0 °F 15.8 °F 69% 29.66 in 10.0 mi NW 25.3 mph 32.2 mph N/A   Clear
5:16 AM 24.8 °F 9.3 °F 15.8 °F 69% 29.65 in 10.0 mi NW 24.2 mph 31.1 mph N/A   Clear
5:36 AM 23.0 °F 10.1 °F 17.6 °F 80% 29.66 in 10.0 mi NNW 15.0 mph - N/A   Scattered Clouds
5:56 AM 23.0 °F 8.0 °F 17.6 °F 80% 29.66 in 10.0 mi NNW 20.7 mph - N/A   Overcast
6:16 AM 21.2 °F 6.8 °F 17.6 °F 86% 29.67 in 10.0 mi NNW 17.3 mph - N/A   Overcast
6:36 AM 21.2 °F 5.6 °F 15.8 °F 80% 29.67 in 10.0 mi NNW 20.7 mph 25.3 mph N/A   Overcast
6:56 AM 21.2 °F 6.8 °F 15.8 °F 80% 29.68 in 10.0 mi NNW 17.3 mph - N/A   Overcast
7:16 AM 21.2 °F 7.3 °F 15.8 °F 80% 29.69 in 10.0 mi North 16.1 mph - N/A   Overcast
7:36 AM 21.2 °F 10.1 °F 14.0 °F 74% 29.69 in 10.0 mi NNW 10.4 mph - N/A   Overcast
7:56 AM 21.2 °F 8.9 °F 15.8 °F 80% 29.69 in 10.0 mi NNW 12.7 mph - N/A   Mostly Cloudy
8:16 AM 21.2 °F 8.9 °F 14.0 °F 74% 29.70 in 10.0 mi NW 12.7 mph 20.7 mph N/A   Mostly Cloudy
8:36 AM 21.2 °F 6.4 °F 14.0 °F 74% 29.69 in 10.0 mi NW 18.4 mph 26.5 mph N/A   Mostly Cloudy
8:56 AM 21.2 °F 5.2 °F 14.0 °F 74% 29.69 in 10.0 mi NNW 21.9 mph - N/A   Mostly Cloudy
9:16 AM 21.2 °F 7.3 °F 15.8 °F 80% 29.70 in 10.0 mi NW 16.1 mph 21.9 mph N/A   Scattered Clouds
9:36 AM 21.2 °F 6.8 °F 15.8 °F 80% 29.70 in 10.0 mi NW 17.3 mph 21.9 mph N/A   Scattered Clouds
9:56 AM 21.2 °F 6.4 °F 14.0 °F 74% 29.70 in 10.0 mi NW 18.4 mph 21.9 mph N/A   Scattered Clouds
10:16 AM 19.4 °F 4.5 °F 15.8 °F 86% 29.70 in 10.0 mi NNW 17.3 mph - N/A   Scattered Clouds
10:36 AM 21.2 °F 7.3 °F 15.8 °F 80% 29.71 in 10.0 mi North 16.1 mph - N/A   Scattered Clouds
10:56 AM 21.2 °F 6.0 °F 15.8 °F 80% 29.72 in 10.0 mi NNW 19.6 mph 25.3 mph N/A   Scattered Clouds
11:16 AM 21.2 °F 5.6 °F 15.8 °F 80% 29.72 in 10.0 mi NNW 20.7 mph 26.5 mph N/A   Scattered Clouds
11:36 AM 21.2 °F 6.4 °F 15.8 °F 80% 29.72 in 10.0 mi NNW 18.4 mph - N/A   Scattered Clouds
11:56 AM 21.2 °F 6.8 °F 15.8 °F 80% 29.72 in 10.0 mi NNW 17.3 mph - N/A   Scattered Clouds
12:16 PM 21.2 °F 6.4 °F 14.0 °F 74% 29.72 in 10.0 mi NNW 18.4 mph 25.3 mph N/A   Scattered Clouds
12:36 PM 21.2 °F 6.8 °F 15.8 °F 80% 29.72 in 10.0 mi NNW 17.3 mph 21.9 mph N/A   Scattered Clouds
12:56 PM 21.2 °F 7.3 °F 14.0 °F 74% 29.72 in 10.0 mi NNW 16.1 mph - N/A   Partly Cloudy
1:16 PM 21.2 °F 8.3 °F 14.0 °F 74% 29.73 in 10.0 mi NW 13.8 mph - N/A   Partly Cloudy
1:36 PM 21.2 °F 7.8 °F 14.0 °F 74% 29.72 in 10.0 mi NNW 15.0 mph 20.7 mph N/A   Partly Cloudy
1:56 PM 21.2 °F 7.3 °F 14.0 °F 74% 29.73 in 10.0 mi NNW 16.1 mph 23.0 mph N/A   Partly Cloudy
2:16 PM 21.2 °F 6.8 °F 14.0 °F 74% 29.73 in 10.0 mi NNW 17.3 mph 20.7 mph N/A   Partly Cloudy
2:36 PM 21.2 °F 6.8 °F 14.0 °F 74% 29.72 in 10.0 mi NNW 17.3 mph - N/A   Partly Cloudy
2:56 PM 21.2 °F 6.4 °F 14.0 °F 74% 29.73 in 10.0 mi NNW 18.4 mph - N/A   Partly Cloudy
3:16 PM 21.2 °F 5.6 °F 15.8 °F 80% 29.73 in 10.0 mi NW 20.7 mph 25.3 mph N/A   Partly Cloudy
3:36 PM 21.2 °F 6.0 °F 15.8 °F 80% 29.73 in 10.0 mi NNW 19.6 mph - N/A   Partly Cloudy
3:56 PM 21.2 °F 5.6 °F 15.8 °F 80% 29.73 in 10.0 mi NNW 20.7 mph - N/A   Scattered Clouds
4:16 PM 21.2 °F 6.4 °F 15.8 °F 80% 29.73 in 10.0 mi NNW 18.4 mph 27.6 mph N/A   Scattered Clouds
4:36 PM 21.2 °F 6.0 °F 15.8 °F 80% 29.73 in 10.0 mi NNW 19.6 mph 26.5 mph N/A   Scattered Clouds
4:56 PM 21.2 °F 5.6 °F 15.8 °F 80% 29.73 in 10.0 mi NNW 20.7 mph 25.3 mph N/A   Scattered Clouds
5:16 PM 21.2 °F 5.2 °F 15.8 °F 80% 29.74 in 10.0 mi NNW 21.9 mph 26.5 mph N/A   Scattered Clouds
5:36 PM 21.2 °F 6.8 °F 15.8 °F 80% 29.74 in 10.0 mi NNW 17.3 mph - N/A   Scattered Clouds
5:56 PM 21.2 °F 6.4 °F 15.8 °F 80% 29.75 in 10.0 mi NNW 18.4 mph - N/A   Scattered Clouds
6:16 PM 21.2 °F 5.6 °F 15.8 °F 80% 29.76 in 10.0 mi NNW 20.7 mph 24.2 mph N/A   Scattered Clouds
6:36 PM 21.2 °F 6.0 °F 15.8 °F 80% 29.76 in 10.0 mi NNW 19.6 mph - N/A   Scattered Clouds
6:56 PM 21.2 °F 5.2 °F 15.8 °F 80% 29.76 in 10.0 mi NNW 21.9 mph - N/A   Scattered Clouds
7:16 PM 21.2 °F 6.4 °F 15.8 °F 80% 29.77 in 10.0 mi NNW 18.4 mph - N/A   Scattered Clouds
7:36 PM 21.2 °F 6.4 °F 15.8 °F 80% 29.77 in 10.0 mi NNW 18.4 mph 23.0 mph N/A   Scattered Clouds
7:56 PM 21.2 °F 6.8 °F 15.8 °F 80% 29.77 in 10.0 mi NNW 17.3 mph 23.0 mph N/A   Scattered Clouds
8:16 PM 21.2 °F 7.8 °F 15.8 °F 80% 29.78 in 10.0 mi NNW 15.0 mph 18.4 mph N/A   Clear
8:36 PM 21.2 °F 13.6 °F 15.8 °F 80% 29.78 in 10.0 mi NNW 5.8 mph - N/A   Scattered Clouds
8:56 PM 21.2 °F 11.7 °F 14.0 °F 74% 29.79 in 10.0 mi NNW 8.1 mph 17.3 mph N/A   Partly Cloudy
9:16 PM 21.2 °F 11.7 °F 14.0 °F 74% 29.79 in 10.0 mi North 8.1 mph 18.4 mph N/A   Clear
9:36 PM 21.2 °F 11.7 °F 14.0 °F 74% 29.79 in 10.0 mi North 8.1 mph - N/A   Clear
9:56 PM 21.2 °F 7.8 °F 14.0 °F 74% 29.79 in 10.0 mi North 15.0 mph 21.9 mph N/A   Clear
10:16 PM 21.2 °F 10.1 °F 14.0 °F 74% 29.80 in 10.0 mi North 10.4 mph 20.7 mph N/A   Clear
10:36 PM 21.2 °F 7.8 °F 15.8 °F 80% 29.80 in 10.0 mi NNW 15.0 mph - N/A   Clear
10:56 PM 23.0 °F 11.1 °F 15.8 °F 74% 29.80 in 10.0 mi NNW 12.7 mph - N/A   Clear
11:16 PM 23.0 °F 10.6 °F 15.8 °F 74% 29.81 in 10.0 mi NW 13.8 mph - N/A   Clear
11:36 PM 23.0 °F 9.6 °F 15.8 °F 74% 29.80 in 10.0 mi NW 16.1 mph - N/A   Clear
11:56 PM 23.0 °F 10.6 °F 17.6 °F 80% 29.82 in 10.0 mi NW 13.8 mph - N/A   Clear